Bryce Canyon, UT

8:53 AM MST on December 13, 2019 (GMT -0700)
Bryce Canyon

Weather History for KBCE - August, 2019

Change the Weather History Date:

Saturday, August 24, 2019

  Actual Average Record
Temperature  
Mean Temperature 62 °F -  
Max Temperature 84 °F 75 °F 87 °F (1976)
Min Temperature 39 °F 43 °F 30 °F (1968)
Degree Days  
Heating Degree Days 4    
Growing Degree Days 12 (Base 50)    
Moisture  
Dew Point 31 °F    
Average Humidity 32    
Maximum Humidity 63    
Minimum Humidity 16    
Precipitation  
Precipitation 0.00 in - - ()
Sea Level Pressure  
Sea Level Pressure 29.95 in    
Wind  
Wind Speed 5 mph (WNW)    
Max Wind Speed 15 mph    
Max Gust Speed 22 mph    
Visibility 9 miles    
Events      
Averages and records for this station are not official NWS values.
T = Trace of Precipitation, MM = Missing Value Source: NWS Daily Summary

Daily Weather History Graph

Daily Weather History Graph

Search for Another Location

Airport or City:

Astronomy

Aug. 24, 2019 Rise Set
Actual Time 6:51 AM MDT 8:09 PM MDT
Civil Twilight 6:24 AM MDT 8:36 PM MDT
Nautical Twilight 5:51 AM MDT 9:09 PM MDT
Astronomical Twilight 5:17 AM MDT 9:43 PM MDT
Moon 12:49 AM MDT (8/24) 3:26 PM MDT (8/24)
Length of Visible Light 14h 12m
Length of Day
13h 17m
Last Quarter, 38% of the Moon is Illuminated
Aug 24
Last Quarter
Aug 30
New
Sep 5
First Quarter
Sep 13
Full
Sep 21
Last Quarter

Hourly Weather History & Observations

Time (MDT) Temp. Windchill Dew Point Humidity Pressure Visibility Wind Dir Wind Speed Gust Speed Precip Events Conditions
12:53 AM 53.1 °F - 28.0 °F 38% 29.88 in 10.0 mi Calm Calm - N/A   Clear
1:53 AM 54.0 °F - 27.0 °F 35% 29.89 in 10.0 mi Calm Calm - N/A   Clear
2:53 AM 48.9 °F - 27.0 °F 43% 29.92 in 10.0 mi Calm Calm - N/A   Clear
3:53 AM 43.0 °F 39.5 °F 28.0 °F 56% 29.96 in 10.0 mi WSW 5.8 mph - N/A   Clear
4:53 AM 43.0 °F - 28.0 °F 56% 29.96 in 5.0 mi Calm Calm - N/A   Haze
5:53 AM 39.9 °F 37.8 °F 28.0 °F 63% 29.99 in 6.0 mi Variable 3.5 mph - N/A   Haze
6:53 AM 39.0 °F 36.8 °F 27.0 °F 62% 30.00 in 7.0 mi Variable 3.5 mph - N/A   Clear
7:53 AM 50.0 °F - 33.1 °F 52% 30.00 in 8.0 mi West 6.9 mph - N/A   Clear
8:53 AM 66.9 °F - 36.0 °F 32% 29.98 in 10.0 mi WNW 9.2 mph - N/A   Clear
9:53 AM 72.0 °F - 35.1 °F 26% 29.96 in 10.0 mi WNW 8.1 mph - N/A   Clear
10:53 AM 73.9 °F - 33.1 °F 22% 29.97 in 10.0 mi West 9.2 mph - N/A   Clear
11:53 AM 78.1 °F - 32.0 °F 19% 29.94 in 10.0 mi West 11.5 mph 18.4 mph N/A   Clear
12:53 PM 79.0 °F - 32.0 °F 18% 29.96 in 10.0 mi WNW 9.2 mph - N/A   Clear
1:53 PM 81.0 °F - 30.0 °F 16% 29.93 in 10.0 mi North - - N/A   Clear
2:53 PM 84.0 °F - 33.1 °F 16% 29.92 in 10.0 mi NW 8.1 mph 18.4 mph N/A   Clear
3:53 PM 84.0 °F - 33.1 °F 16% 29.93 in 10.0 mi North 8.1 mph - N/A   Clear
4:53 PM 84.0 °F - 33.1 °F 16% 29.92 in 10.0 mi NW 8.1 mph - N/A   Clear
5:53 PM 82.9 °F - 34.0 °F 17% 29.94 in 10.0 mi NNW 11.5 mph 19.6 mph N/A   Clear
6:53 PM 80.1 °F - 35.1 °F 20% 29.96 in 10.0 mi West 15.0 mph 21.9 mph N/A   Clear
7:53 PM 73.9 °F - 34.0 °F 23% 29.96 in 10.0 mi West 13.8 mph - N/A   Clear
8:53 PM 69.1 °F - 33.1 °F 26% 29.92 in 10.0 mi WSW 11.5 mph - N/A   Clear
9:53 PM 62.1 °F - 32.0 °F 32% 29.94 in 10.0 mi WSW 8.1 mph - N/A   Clear
10:53 PM 60.1 °F - 32.0 °F 35% 29.95 in 10.0 mi SW 11.5 mph - N/A   Clear
11:53 PM 59.0 °F - 30.0 °F 33% 29.94 in 10.0 mi WNW 5.8 mph - N/A   Clear